GW2412 Weather Reports


Display with metric or nautical units.
time (UTC)temp
F
wind
direction
speed
MPH
gust
MPH
rain 1hr
in
rain 24hr
in
rain mn
in
humidity
%
barometer
mb
20260903160044 57 220 5.0 11.0 0.00 0.02 0.00 1 1008.8
20260903155518 57 232 6.0 9.0 0.00 0.02 0.00 1 1008.8
20260903155020 57 223 7.0 9.0 0.00 0.02 0.00 1 1008.6
20260903154547 56 242 7.0 10.0 0.00 0.02 0.00 1 1008.6
20260903154022 56 240 6.0 9.0 0.00 0.02 0.00 1 1008.7
20260903153518 56 234 6.0 9.0 0.00 0.02 0.00 1 1008.8
20260903153043 55 232 5.0 9.0 0.00 0.02 0.00 1 1008.9
20260903152519 55 250 5.0 8.0 0.00 0.02 0.00 1 1008.9
20260903152015 54 273 5.0 8.0 0.00 0.02 0.00 1 1008.8
20260903151549 54 263 4.0 7.0 0.00 0.02 0.00 1 1008.8
20260903151019 54 271 2.0 6.0 0.00 0.02 0.00 1 1008.8
20260903150517 53 271 3.0 6.0 0.00 0.02 0.00 1 1009.0
20260903145518 53 241 2.0 4.0 0.00 0.02 0.00 1 1008.9
20260903145021 52 241 2.0 3.0 0.00 0.02 0.00 1 1008.7
20260903144545 52 241 0.0 4.0 0.00 0.02 0.00 1 1008.6
20260903144017 52 241 2.0 5.0 0.00 0.02 0.00 1 1008.6
20260903143515 52 241 3.0 7.0 0.00 0.02 0.00 1 1008.6
20260903143045 51 241 4.0 7.0 0.00 0.02 0.00 1 1008.5
20260903142521 51 277 3.0 5.0 0.00 0.02 0.00 1 1008.5
20260903142020 50 277 4.0 5.0 0.00 0.02 0.00 1 1008.4
20260903141545 50 277 3.0 8.0 0.00 0.02 0.00 1 1008.4
20260903141023 50 277 5.0 9.0 0.00 0.02 0.00 1 1008.3
20260903140520 50 271 6.0 8.0 0.00 0.02 0.00 1 1008.1
20260903140046 49 256 6.0 8.0 0.00 0.02 0.00 1 1008.1
20260903135520 49 259 6.0 8.0 0.00 0.02 0.00 1 1008.1
20260903135019 48 270 5.0 7.0 0.00 0.02 0.00 1 1008.1
20260903134548 48 274 5.0 7.0 0.00 0.02 0.00 1 1008.2
20260903134019 47 274 5.0 7.0 0.00 0.02 0.00 1 1008.2
20260903133519 47 273 3.0 5.0 0.00 0.02 0.00 1 1008.1
20260903133046 46 259 3.0 5.0 0.00 0.02 0.00 1 1008.1
20260903132518 45 311 3.0 5.0 0.00 0.02 0.00 1 1007.9
20260903132019 45 311 3.0 5.0 0.00 0.02 0.00 1 1007.9
20260903131544 45 311 4.0 6.0 0.00 0.02 0.00 1 1008.0
20260903131018 44 311 4.0 6.0 0.00 0.02 0.00 1 1008.0
20260903130515 43 311 5.0 6.0 0.00 0.02 0.00 1 1007.8
20260903130051 43 311 4.0 5.0 0.00 0.02 0.00 1 1007.6
20260903125516 42 311 4.0 6.0 0.00 0.02 0.00 1 1007.5
20260903125026 42 311 4.0 6.0 0.00 0.02 0.00 1 1007.5
20260903124558 42 311 4.0 6.0 0.00 0.02 0.00 1 1007.4
20260903124020 42 311 4.0 6.0 0.00 0.02 0.00 1 1007.4
20260903123518 42 311 4.0 6.0 0.00 0.02 0.00 1 1007.4
20260903123041 42 311 4.0 6.0 0.00 0.02 0.00 1 1007.4
20260903122516 42 311 3.0 6.0 0.00 0.02 0.00 1 1007.6
20260903122016 41 311 4.0 6.0 0.00 0.02 0.00 1 1007.6
20260903121544 40 311 5.0 6.0 0.00 0.02 0.00 1 1007.6
20260903121021 40 311 4.0 6.0 0.00 0.02 0.00 1 1007.6
20260903120519 40 311 5.0 6.0 0.00 0.02 0.00 1 1007.6
20260903120052 41 295 4.0 7.0 0.00 0.02 0.00 1 1007.7
20260903115521 41 295 4.0 7.0 0.00 0.02 0.00 1 1007.6
20260903115019 43 291 4.0 7.0 0.00 0.02 0.00 1 1007.5
20260903114610 44 291 5.0 7.0 0.00 0.02 0.00 1 1007.6
20260903114017 44 298 4.0 7.0 0.00 0.02 0.00 1 1007.6
20260903113526 43 298 3.0 5.0 0.00 0.02 0.00 1 1007.7
20260903113044 45 251 0.0 4.0 0.00 0.02 0.00 1 1007.9
20260903112519 45 251 2.0 4.0 0.00 0.02 0.00 1 1007.8
20260903112022 47 251 0.0 4.0 0.00 0.02 0.00 1 1007.8
20260903111548 47 251 2.0 4.0 0.00 0.02 0.00 1 1007.8
20260903111025 47 251 2.0 4.0 0.00 0.02 0.00 1 1008.0
20260903110520 47 269 1.0 5.0 0.00 0.02 0.00 1 1007.9
20260903110046 47 303 3.0 5.0 0.00 0.02 0.00 1 1007.9
20260903105524 47 303 2.0 4.0 0.00 0.02 0.00 1 1007.8
20260903105019 44 303 0.0 4.0 0.00 0.02 0.00 1 1007.9
20260903104543 43 303 0.0 3.0 0.00 0.02 0.00 1 1007.8
20260903104017 44 303 0.0 3.0 0.00 0.02 0.00 1 1007.8
20260903103520 42 304 1.0 3.0 0.00 0.02 0.00 1 1007.9
20260903103101 42 304 0.0 2.0 0.00 0.02 0.00 1 1007.9
20260903102522 42 303 0.0 4.0 0.00 0.02 0.00 1 1007.8
20260903102021 43 304 1.0 5.0 0.00 0.02 0.00 1 1007.5
20260903101545 42 304 3.0 5.0 0.00 0.02 0.00 1 1007.5
20260903101020 42 304 1.0 3.0 0.00 0.02 0.00 1 1007.6
20260903100525 43 303 0.0 4.0 0.00 0.02 0.00 1 1007.7
20260903100048 44 303 2.0 4.0 0.00 0.02 0.00 1 1007.7
20260903095519 46 303 2.0 4.0 0.00 0.02 0.00 1 1007.6
20260903095018 45 303 2.0 4.0 0.00 0.02 0.00 1 1007.5
20260903094558 43 304 1.0 4.0 0.00 0.02 0.00 1 1007.7
20260903094021 43 304 1.0 4.0 0.00 0.02 0.00 1 1007.7
20260903093520 43 304 2.0 4.0 0.00 0.02 0.00 1 1007.7
20260903093122 44 304 2.0 3.0 0.00 0.02 0.00 1 1007.6
20260903092522 45 304 0.0 3.0 0.00 0.02 0.00 1 1007.6
20260903092021 46 303 0.0 3.0 0.00 0.02 0.00 1 1007.5
20260903091553 47 303 0.0 0.0 0.00 0.02 0.00 1 1007.6
20260903091024 48 303 0.0 0.0 0.00 0.02 0.00 1 1007.6
20260903090519 48 303 0.0 0.0 0.00 0.02 0.00 1 1007.5
20260903090046 49 303 0.0 0.0 0.00 0.02 0.00 1 1007.4
20260903085517 49 303 0.0 0.0 0.00 0.02 0.00 1 1007.4
20260903085018 49 303 0.0 2.0 0.00 0.02 0.00 1 1007.4
20260903084542 49 303 0.0 5.0 0.00 0.02 0.00 1 1007.4
20260903084019 48 303 3.0 5.0 0.00 0.02 0.00 1 1007.3
20260903083518 48 303 1.0 5.0 0.00 0.02 0.00 1 1007.3
20260903083057 47 303 3.0 6.0 0.00 0.02 0.00 1 1007.3
20260903082527 47 303 4.0 6.0 0.00 0.02 0.00 1 1007.1
20260903082025 47 272 5.0 6.0 0.00 0.02 0.00 1 1007.0
20260903081547 47 272 3.0 6.0 0.00 0.02 0.00 1 1007.1
20260903081023 47 272 3.0 4.0 0.00 0.02 0.00 1 1007.1
20260903080529 48 272 3.0 6.0 0.00 0.02 0.00 1 1007.1
20260903080045 48 272 4.0 6.0 0.00 0.02 0.00 1 1007.2
20260903075519 48 272 4.0 6.0 0.00 0.02 0.00 1 1007.1
20260903075021 48 272 4.0 6.0 0.00 0.02 0.00 1 1007.1
20260903074552 48 272 4.0 6.0 0.00 0.02 0.00 1 1006.9
20260903074020 48 272 3.0 6.0 0.00 0.02 0.00 1 1006.9
20260903073520 48 272 3.0 7.0 0.00 0.02 0.00 1 1006.9
20260903073052 49 272 4.0 8.0 0.00 0.02 0.00 1 1006.8
20260903072526 49 272 5.0 8.0 0.00 0.02 0.00 1 1006.7
20260903072019 49 275 6.0 8.0 0.00 0.02 0.00 1 1006.7
20260903071616 49 275 4.0 7.0 0.00 0.02 0.00 1 1006.5
20260903071020 50 275 3.0 8.0 0.00 0.02 0.00 1 1006.6
20260903070530 50 275 4.0 9.0 0.00 0.02 0.00 1 1006.8
20260903070104 49 299 6.0 9.0 0.00 0.02 0.00 1 1007.0
20260903065525 49 297 4.0 7.0 0.00 0.02 0.00 1 1007.0
20260903065022 49 260 2.0 6.0 0.00 0.02 0.00 1 1007.0
20260903064541 50 260 3.0 7.0 0.00 0.02 0.00 1 1007.0
20260903064019 50 260 3.0 7.0 0.00 0.02 0.00 1 1006.8
20260903063525 50 279 4.0 8.0 0.00 0.02 0.00 1 1006.8
20260903063055 51 263 3.0 11.0 0.00 0.02 0.00 1 1006.8
20260903062522 51 281 5.0 13.0 0.00 0.02 0.00 1 1006.7
20260903062020 51 272 8.0 16.0 0.00 0.02 0.00 1 1006.7
20260903061550 51 266 11.0 17.0 0.00 0.02 0.00 1 1006.7
20260903061026 51 271 13.0 21.0 0.00 0.02 0.00 1 1006.8
20260903060518 52 260 15.0 23.0 0.00 0.02 0.00 1 1006.8
20260903060042 52 258 17.0 23.0 0.00 0.02 0.00 1 1006.8
20260903055521 52 246 16.0 24.0 0.00 0.02 0.02 1 1006.9
20260903055023 52 240 16.0 23.0 0.00 0.02 0.02 1 1007.0
20260903054551 52 246 15.0 19.0 0.00 0.02 0.02 1 1007.0
20260903054025 51 246 13.0 18.0 0.00 0.02 0.02 1 1006.9
20260903053520 51 257 11.0 16.0 0.00 0.02 0.02 1 1006.9
20260903053049 51 257 11.0 16.0 0.00 0.02 0.02 1 1007.0
20260903052524 51 248 13.0 16.0 0.00 0.02 0.02 1 1007.0
20260903052025 51 240 13.0 18.0 0.00 0.02 0.02 1 1007.0
20260903051611 51 227 14.0 18.0 0.00 0.02 0.02 1 1007.1
20260903051025 51 234 13.0 20.0 0.00 0.02 0.02 1 1007.1
20260903050524 51 215 14.0 20.0 0.00 0.02 0.02 1 1007.1
20260903050112 51 224 13.0 20.0 0.00 0.02 0.02 1 1007.2
20260903045525 51 212 14.0 21.0 0.00 0.02 0.02 1 1007.3
20260903045024 52 216 16.0 24.0 0.00 0.02 0.02 1 1007.1
20260903044559 52 215 17.0 22.0 0.00 0.02 0.02 1 1007.1
20260903044026 52 219 17.0 25.0 0.00 0.02 0.02 1 1007.2
20260903043525 52 220 16.0 24.0 0.00 0.02 0.02 1 1007.3
20260903043058 52 211 15.0 24.0 0.00 0.02 0.02 1 1007.1
20260903042524 52 216 14.0 23.0 0.00 0.02 0.02 1 1007.1
20260903042024 51 208 12.0 19.0 0.00 0.02 0.02 1 1007.0
20260903041608 51 197 14.0 19.0 0.00 0.02 0.02 1 1007.1
20260903041126 51 200 12.0 15.0 0.00 0.02 0.02 1 1007.2
20260903040518 50 194 11.0 16.0 0.00 0.02 0.02 1 1007.3
20260903040049 50 198 10.0 16.0 0.00 0.02 0.02 1 1007.3
20260903035516 51 204 10.0 14.0 0.00 0.02 0.02 1 1007.2
20260903035016 50 205 10.0 14.0 0.00 0.02 0.02 1 1007.1
20260903034535 51 205 9.0 14.0 0.00 0.02 0.02 1 1007.0
20260903034018 51 225 10.0 13.0 0.00 0.02 0.02 1 1006.9
20260903033515 51 216 10.0 13.0 0.00 0.02 0.02 1 1006.9
20260903033035 51 207 10.0 13.0 0.00 0.02 0.02 1 1007.0
20260903032518 51 213 9.0 15.0 0.00 0.02 0.02 1 1006.8
20260903032021 51 208 9.0 15.0 0.00 0.02 0.02 1 1006.8
20260903031538 51 216 9.0 17.0 0.00 0.02 0.02 1 1006.5
20260903031018 51 212 11.0 17.0 0.00 0.02 0.02 1 1006.4
20260903030516 50 217 11.0 15.0 0.00 0.02 0.02 1 1006.6
20260903030033 50 227 9.0 12.0 0.00 0.02 0.02 1 1006.6
20260903025518 50 246 10.0 13.0 0.00 0.02 0.02 1 1006.7
20260903025017 51 245 10.0 12.0 0.00 0.02 0.02 1 1006.7
20260903024536 51 237 11.0 15.0 0.00 0.02 0.02 1 1006.9
20260903024015 51 232 11.0 16.0 0.00 0.02 0.02 1 1007.2
20260903023517 52 228 12.0 19.0 0.00 0.02 0.02 1 1007.4
20260903023042 52 220 12.0 19.0 0.00 0.02 0.02 1 1007.5
20260903022518 52 211 12.0 19.0 0.00 0.02 0.02 1 1007.6
20260903022016 52 202 11.0 18.0 0.00 0.02 0.02 1 1007.7
20260903021536 52 203 13.0 18.0 0.00 0.02 0.02 1 1007.7
20260903021019 52 220 10.0 13.0 0.00 0.02 0.02 1 1007.6
20260903020516 53 221 10.0 12.0 0.00 0.02 0.02 1 1007.0
20260903020037 53 216 9.0 12.0 0.00 0.02 0.02 1 1007.2
20260903015518 53 198 8.0 12.0 0.00 0.02 0.02 1 1007.4
20260903015017 54 203 9.0 11.0 0.00 0.02 0.02 1 1007.7
20260903014535 54 193 9.0 12.0 0.00 0.02 0.02 1 1007.5
20260903014016 55 199 8.0 12.0 0.00 0.02 0.02 1 1007.2
20260903013516 55 189 10.0 13.0 0.01 0.02 0.02 1 1007.1
20260903013035 56 169 8.0 12.0 0.01 0.02 0.02 1 1007.3
20260903012518 56 146 3.0 8.0 0.01 0.02 0.02 1 1007.0
20260903012019 56 355 3.0 6.0 0.01 0.02 0.02 1 1006.9
20260903011533 57 355 4.0 5.0 0.01 0.02 0.02 1 1006.7
20260903011018 56 355 2.0 5.0 0.01 0.02 0.02 1 1006.8
20260903010518 56 355 3.0 6.0 0.01 0.02 0.02 1 1006.7
20260903010037 57 355 3.0 10.0 0.01 0.02 0.02 1 1006.6
20260903005517 57 355 5.0 12.0 0.01 0.02 0.02 1 1006.5
20260903005018 56 5 7.0 14.0 0.02 0.02 0.02 1 1006.5
20260903004545 56 5 8.0 14.0 0.02 0.02 0.02 1 1006.5
20260903004021 56 18 11.0 14.0 0.02 0.02 0.02 1 1006.1
20260903003516 56 349 5.0 10.0 0.01 0.01 0.01 1 1007.4
20260903003034 56 11 5.0 8.0 0.01 0.01 0.01 1 1007.2
20260903002519 56 351 5.0 6.0 0.01 0.01 0.01 1 1007.3
20260903002019 57 332 2.0 6.0 0.01 0.01 0.01 1 1007.7
20260903001539 57 275 3.0 8.0 0.01 0.01 0.01 1 1007.9
20260903001017 57 275 5.0 9.0 0.01 0.01 0.01 1 1008.2
20260903000516 57 230 4.0 12.0 0.01 0.01 0.01 1 1008.4
20260903000045 57 261 7.0 17.0 0.01 0.01 0.01 1 1008.3
20260902235517 58 229 10.0 17.0 0.01 0.01 0.01 1 1009.0
20260902235015 58 236 8.0 15.0 0.00 0.00 0.00 1 1009.1
20260902234542 58 187 9.0 27.0 0.00 0.00 0.00 1 1009.0
20260902234017 58 177 20.0 27.0 0.00 0.00 0.00 1 1008.8
20260902233519 59 201 22.0 33.0 0.00 0.00 0.00 1 1008.1
20260902233042 60 173 24.0 32.0 0.00 0.00 0.00 1 1007.5
20260902232519 60 189 24.0 36.0 0.00 0.00 0.00 1 1007.3
20260902232020 60 188 29.0 37.0 0.00 0.00 0.00 1 1006.9
20260902231541 62 194 23.0 37.0 0.00 0.00 0.00 1 1006.9
20260902231018 64 199 26.0 41.0 0.00 0.00 0.00 1 1006.8
20260902230516 65 191 22.0 39.0 0.00 0.00 0.00 1 1006.5
20260902230041 73 190 20.0 43.0 0.00 0.00 0.00 1 1004.6
20260902225517 76 177 15.0 22.0 0.00 0.00 0.00 1 1004.8
20260902225020 76 159 7.0 10.0 0.00 0.00 0.00 1 1004.4
20260902224550 77 167 7.0 10.0 0.00 0.00 0.00 1 1004.2
20260902224017 77 158 5.0 10.0 0.00 0.00 0.00 1 1004.2
20260902223517 77 150 8.0 11.0 0.00 0.00 0.00 1 1004.2
20260902223036 77 157 9.0 13.0 0.00 0.00 0.00 1 1004.3
20260902222518 77 167 12.0 13.0 0.00 0.00 0.00 1 1004.5
20260902222018 77 161 10.0 14.0 0.00 0.00 0.00 1 1004.7
20260902221534 77 167 10.0 14.0 0.00 0.00 0.00 1 1004.6
20260902221020 77 169 9.0 17.0 0.00 0.00 0.00 1 1004.6
20260902220518 77 178 10.0 21.0 0.00 0.00 0.00 1 1004.9
20260902220037 78 168 16.0 24.0 0.00 0.00 0.00 1 1004.8
20260902215516 79 155 14.0 24.0 0.00 0.00 0.00 1 1004.8
20260902215017 79 155 17.0 22.0 0.00 0.00 0.00 1 1004.7
20260902214605 79 171 13.0 19.0 0.00 0.00 0.00 1 1004.9
20260902214018 79 153 17.0 22.0 0.00 0.00 0.00 1 1004.8
20260902213521 78 175 16.0 24.0 0.00 0.00 0.00 1 1004.9
20260902213033 78 155 12.0 22.0 0.00 0.00 0.00 1 1005.0
20260902212517 78 159 18.0 22.0 0.00 0.00 0.00 1 1005.0
20260902212020 78 178 14.0 22.0 0.00 0.00 0.00 1 1005.0
20260902211534 78 161 16.0 21.0 0.00 0.00 0.00 1 1005.1
20260902211018 78 155 15.0 19.0 0.00 0.00 0.00 1 1005.3
20260902210518 78 163 14.0 22.0 0.00 0.00 0.00 1 1005.5
20260902210046 77 161 16.0 24.0 0.00 0.00 0.00 1 1005.6
20260902205518 78 180 17.0 23.0 0.00 0.00 0.00 1 1005.8
20260902205018 77 148 13.0 20.0 0.00 0.00 0.00 1 1005.7
20260902204540 77 189 9.0 17.0 0.00 0.00 0.00 1 1005.9
20260902204021 77 159 13.0 19.0 0.00 0.00 0.00 1 1005.8
20260902203517 77 146 13.0 23.0 0.00 0.00 0.00 1 1006.1
20260902203036 76 196 14.0 23.0 0.00 0.00 0.00 1 1006.0
20260902202517 76 171 18.0 24.0 0.00 0.00 0.00 1 1006.1
20260902202017 76 179 12.0 22.0 0.00 0.00 0.00 1 1006.2
20260902201551 76 184 11.0 20.0 0.00 0.00 0.00 1 1006.2
20260902201017 76 186 16.0 20.0 0.00 0.00 0.00 1 1006.4
20260902200518 76 166 15.0 22.0 0.00 0.00 0.00 1 1006.1
20260902200036 76 140 13.0 19.0 0.00 0.00 0.00 1 1006.2
20260902195518 74 155 9.0 15.0 0.00 0.00 0.00 1 1006.6
20260902195016 74 167 9.0 16.0 0.00 0.00 0.00 1 1006.7
20260902194546 75 190 12.0 16.0 0.00 0.00 0.00 1 1006.5
20260902194016 74 157 11.0 15.0 0.00 0.00 0.00 1 1006.6
20260902193517 73 185 8.0 14.0 0.00 0.00 0.00 1 1006.7
20260902193033 73 185 11.0 14.0 0.00 0.00 0.00 1 1006.7
20260902192517 73 159 8.0 16.0 0.00 0.00 0.00 1 1006.8
20260902192020 73 173 13.0 16.0 0.00 0.00 0.00 1 1006.7
20260902191535 73 182 9.0 13.0 0.00 0.00 0.00 1 1006.9
20260902191018 72 194 6.0 14.0 0.00 0.00 0.00 1 1007.2
20260902190516 72 188 10.0 15.0 0.00 0.00 0.00 1 1007.1
20260902190037 72 200 11.0 15.0 0.00 0.00 0.00 1 1007.1
20260902185516 72 194 8.0 13.0 0.00 0.00 0.00 1 1007.3
20260902185019 72 190 10.0 16.0 0.00 0.00 0.00 1 1007.4
20260902184536 72 181 12.0 18.0 0.00 0.00 0.00 1 1007.2
20260902184018 72 179 11.0 19.0 0.00 0.00 0.00 1 1007.3
20260902183516 72 197 14.0 19.0 0.00 0.00 0.00 1 1007.4
20260902183040 72 153 11.0 17.0 0.00 0.00 0.00 1 1007.7
20260902182517 71 173 13.0 19.0 0.00 0.00 0.00 1 1007.6
20260902182018 71 167 10.0 17.0 0.00 0.00 0.00 1 1007.8
20260902181539 72 176 14.0 20.0 0.00 0.00 0.00 1 1007.7
20260902181016 71 176 12.0 19.0 0.00 0.00 0.00 1 1007.9
20260902180521 71 153 10.0 16.0 0.00 0.00 0.00 1 1007.8
20260902180040 70 185 10.0 16.0 0.00 0.00 0.00 1 1007.8
20260902175518 70 186 13.0 17.0 0.00 0.00 0.00 1 1007.9
20260902175017 70 190 13.0 17.0 0.00 0.00 0.00 1 1007.9
20260902174546 70 194 10.0 16.0 0.00 0.00 0.00 1 1008.0
20260902174017 70 182 10.0 17.0 0.00 0.00 0.00 1 1007.9
20260902173520 70 179 13.0 17.0 0.00 0.00 0.00 1 1008.0
20260902173041 70 199 12.0 16.0 0.00 0.00 0.00 1 1007.8
20260902172522 70 194 8.0 16.0 0.00 0.00 0.00 1 1007.8
20260902172018 70 185 11.0 16.0 0.00 0.00 0.00 1 1007.9
20260902171541 70 159 12.0 15.0 0.00 0.00 0.00 1 1007.8
20260902171016 70 196 9.0 13.0 0.00 0.00 0.00 1 1007.8
20260902170521 70 203 9.0 12.0 0.00 0.00 0.00 1 1007.8
20260902170042 70 181 7.0 12.0 0.00 0.00 0.00 1 1007.8
20260902165520 70 171 7.0 10.0 0.00 0.00 0.00 1 1007.5
20260902165019 70 150 5.0 9.0 0.00 0.00 0.00 1 1007.6
20260902164548 70 148 2.0 7.0 0.00 0.00 0.00 1 1007.6
20260902164018 69 169 2.0 7.0 0.00 0.00 0.00 1 1007.6
20260902163517 68 169 3.0 7.0 0.00 0.00 0.00 1 1007.7
20260902163042 68 167 2.0 7.0 0.00 0.00 0.00 1 1007.7
20260902162521 68 244 3.0 10.0 0.00 0.00 0.00 1 1007.7
20260902162021 68 205 6.0 10.0 0.00 0.00 0.00 1 1007.9
20260902161540 68 182 4.0 8.0 0.00 0.00 0.00 1 1007.9
20260902161020 67 229 5.0 10.0 0.00 0.00 0.00 1 1007.9
20260902160521 66 227 6.0 11.0 0.00 0.00 0.00 1 1007.8